When you browse on this site, cookies collect data to enhance your experience and personalize the content and advertising you see.
Visit our Privacy Policy to learn more. By continuing to use the site, you agree to this use of cookies and data.
  • In Latvia
  • List of Countries
  • For 7 days
  • Water Temperature
  • Weather Map
  • Weather Widgets
  • user-avatar
    Login

    Hourly Weather Yulara

    Today, 23 November, Saturday

    Time Temperature Precipitation Wind Pressure Humidity
    00:00 +23°C° 0 mm 6 mps 718 mmHg 16%
    01:00 +22°C° 0 mm 6 mps 718 mmHg 16%
    02:00 +21°C° 0 mm 6 mps 718 mmHg 16%
    03:00 +20°C° 0 mm 5 mps 718 mmHg 16%
    04:00 +20°C° 0 mm 6 mps 718 mmHg 16%
    05:00 +20°C° 0 mm 6 mps 719 mmHg 17%
    06:00 +20°C° 0 mm 6 mps 719 mmHg 17%
    07:00 +22°C° 0 mm 7 mps 720 mmHg 16%
    08:00 +26°C° 0 mm 8 mps 720 mmHg 14%
    09:00 +28°C° 0 mm 10 mps 721 mmHg 13%
    10:00 +32°C° 0 mm 9 mps 720 mmHg 11%
    11:00 +34°C° 0 mm 8 mps 720 mmHg 10%
    12:00 +37°C° 0 mm 8 mps 720 mmHg 9%
    13:00 +38°C° 0 mm 7 mps 719 mmHg 9%
    14:00 +38°C° 0 mm 6 mps 719 mmHg 9%
    15:00 +39°C° 0 mm 6 mps 718 mmHg 9%
    16:00 +37°C° 0 mm 5 mps 718 mmHg 10%
    17:00 +36°C° 0 mm 4 mps 718 mmHg 10%
    18:00 +36°C° 0 mm 4 mps 718 mmHg 11%
    19:00 +33°C° 0 mm 4 mps 718 mmHg 13%
    20:00 +30°C° 0 mm 4 mps 719 mmHg 15%
    21:00 +27°C° 0 mm 4 mps 719 mmHg 17%
    22:00 +26°C° 0 mm 4 mps 719 mmHg 17%
    23:00 +25°C° 0 mm 4 mps 718 mmHg 18%

    Tomorrow, 24 November, Sunday

    Time Temperature Precipitation Wind Pressure Humidity
    00:00 +23°C° 0 mm 5 mps 718 mmHg 19%
    01:00 +22°C° 0 mm 4 mps 718 mmHg 19%
    02:00 +21°C° 0 mm 4 mps 717 mmHg 19%
    03:00 +20°C° 0 mm 4 mps 717 mmHg 20%
    04:00 +21°C° 0 mm 4 mps 717 mmHg 19%
    05:00 +21°C° 0 mm 5 mps 718 mmHg 18%
    06:00 +21°C° 0 mm 5 mps 718 mmHg 17%
    07:00 +24°C° 0 mm 6 mps 718 mmHg 15%
    08:00 +28°C° 0 mm 7 mps 718 mmHg 13%
    09:00 +32°C° 0 mm 8 mps 718 mmHg 11%
    10:00 +34°C° 0 mm 8 mps 718 mmHg 10%
    11:00 +36°C° 0 mm 7 mps 718 mmHg 9%
    12:00 +39°C° 0 mm 6 mps 718 mmHg 9%
    13:00 +39°C° 0 mm 5 mps 717 mmHg 9%
    14:00 +39°C° 0 mm 3 mps 716 mmHg 9%
    15:00 +39°C° 0 mm 2 mps 715 mmHg 9%
    16:00 +39°C° 0 mm 3 mps 715 mmHg 10%
    17:00 +38°C° 0 mm 3 mps 716 mmHg 10%
    18:00 +38°C° 0 mm 4 mps 716 mmHg 11%
    19:00 +35°C° 0 mm 3 mps 715 mmHg 13%
    20:00 +31°C° 0 mm 3 mps 715 mmHg 15%
    21:00 +28°C° 0 mm 2 mps 715 mmHg 18%
    22:00 +27°C° 0 mm 2 mps 715 mmHg 19%
    23:00 +26°C° 0 mm 2 mps 715 mmHg 20%

    Day after tomorrow, 25 November, Monday

    Time Temperature Precipitation Wind Pressure Humidity
    00:00 +25°C° 0 mm 2 mps 714 mmHg 22%
    01:00 +25°C° 0 mm 3 mps 714 mmHg 21%
    02:00 +25°C° 0 mm 4 mps 714 mmHg 20%
    03:00 +23°C° 0 mm 4 mps 713 mmHg 19%
    04:00 +23°C° 0 mm 4 mps 714 mmHg 19%
    05:00 +24°C° 0 mm 3 mps 714 mmHg 19%
    06:00 +24°C° 0 mm 3 mps 714 mmHg 19%
    07:00 +28°C° 0 mm 4 mps 715 mmHg 16%
    08:00 +33°C° 0 mm 5 mps 715 mmHg 12%
    09:00 +38°C° 0 mm 6 mps 716 mmHg 9%
    10:00 +40°C° 0 mm 8 mps 716 mmHg 9%
    11:00 +42°C° 0 mm 9 mps 715 mmHg 9%
    12:00 +43°C° 0 mm 10 mps 715 mmHg 8%
    13:00 +44°C° 0 mm 9 mps 714 mmHg 8%
    14:00 +44°C° 0 mm 8 mps 713 mmHg 8%
    15:00 +44°C° 0 mm 7 mps 712 mmHg 8%
    16:00 +41°C° 0 mm 8 mps 713 mmHg 12%
    17:00 +38°C° 0 mm 10 mps 713 mmHg 16%
    18:00 +36°C° 0 mm 11 mps 713 mmHg 19%
    19:00 +33°C° 0.1 mm 9 mps 714 mmHg 24%
    20:00 +31°C° 0.1 mm 8 mps 714 mmHg 29%
    21:00 +28°C° 0.1 mm 6 mps 715 mmHg 33%
    22:00 +28°C° 0 mm 5 mps 715 mmHg 36%
    23:00 +27°C° 0 mm 4 mps 715 mmHg 39%

    26 November, Tuesday

    Time Temperature Precipitation Wind Pressure Humidity
    00:00 +26°C° 0 mm 3 mps 715 mmHg 42%
    01:00 +26°C° 0 mm 3 mps 715 mmHg 43%
    02:00 +25°C° 0 mm 4 mps 715 mmHg 45%
    03:00 +25°C° 0 mm 5 mps 715 mmHg 46%
    04:00 +23°C° 0 mm 6 mps 715 mmHg 45%
    05:00 +23°C° 0 mm 7 mps 716 mmHg 43%
    06:00 +22°C° 0 mm 8 mps 716 mmHg 41%
    07:00 +24°C° 0 mm 7 mps 716 mmHg 37%
    08:00 +28°C° 0 mm 7 mps 717 mmHg 33%
    09:00 +30°C° 0 mm 7 mps 717 mmHg 28%
    10:00 +33°C° 0 mm 7 mps 717 mmHg 26%
    11:00 +34°C° 0 mm 6 mps 717 mmHg 23%
    12:00 +36°C° 0 mm 6 mps 716 mmHg 20%
    13:00 +37°C° 0 mm 5 mps 715 mmHg 18%
    14:00 +39°C° 0 mm 5 mps 715 mmHg 17%
    15:00 +40°C° 0 mm 4 mps 714 mmHg 16%
    16:00 +37°C° 0 mm 4 mps 714 mmHg 18%
    17:00 +36°C° 0 mm 5 mps 714 mmHg 20%
    18:00 +34°C° 0 mm 5 mps 715 mmHg 22%
    19:00 +33°C° 0 mm 6 mps 715 mmHg 24%
    20:00 +32°C° 0 mm 7 mps 716 mmHg 27%
    21:00 +29°C° 0 mm 7 mps 716 mmHg 29%
    22:00 +28°C° 0 mm 7 mps 716 mmHg 24%
    23:00 +27°C° 0 mm 6 mps 716 mmHg 20%

    27 November, Wednesday

    Time Temperature Precipitation Wind Pressure Humidity
    00:00 +26°C° 0 mm 5 mps 716 mmHg 16%
    01:00 +25°C° 0 mm 5 mps 716 mmHg 16%
    02:00 +23°C° 0 mm 5 mps 715 mmHg 16%
    03:00 +22°C° 0 mm 5 mps 715 mmHg 17%
    04:00 +22°C° 0 mm 5 mps 715 mmHg 17%
    05:00 +22°C° 0 mm 5 mps 716 mmHg 17%
    06:00 +22°C° 0 mm 5 mps 716 mmHg 17%
    07:00 +24°C° 0 mm 6 mps 716 mmHg 16%
    08:00 +28°C° 0 mm 7 mps 716 mmHg 14%
    09:00 +31°C° 0 mm 8 mps 716 mmHg 12%
    10:00 +33°C° 0 mm 8 mps 716 mmHg 12%
    11:00 +35°C° 0 mm 8 mps 716 mmHg 11%
    12:00 +36°C° 0 mm 7 mps 716 mmHg 10%
    13:00 +38°C° 0 mm 7 mps 715 mmHg 11%
    14:00 +38°C° 0 mm 8 mps 715 mmHg 12%
    15:00 +38°C° 0 mm 8 mps 714 mmHg 13%
    16:00 +34°C° 0 mm 8 mps 715 mmHg 20%
    17:00 +32°C° 0 mm 8 mps 715 mmHg 27%
    18:00 +29°C° 0 mm 8 mps 715 mmHg 33%
    19:00 +28°C° 0 mm 7 mps 715 mmHg 34%
    20:00 +28°C° 0 mm 5 mps 715 mmHg 35%
    21:00 +27°C° 0 mm 4 mps 716 mmHg 36%
    22:00 +27°C° 0 mm 4 mps 716 mmHg 38%
    23:00 +26°C° 0 mm 4 mps 715 mmHg 40%

    28 November, Thursday

    Time Temperature Precipitation Wind Pressure Humidity
    00:00 +26°C° 0 mm 5 mps 715 mmHg 42%
    01:00 +26°C° 0 mm 5 mps 715 mmHg 44%
    02:00 +26°C° 0 mm 5 mps 715 mmHg 46%
    03:00 +26°C° 0 mm 6 mps 715 mmHg 48%
    04:00 +25°C° 0 mm 5 mps 715 mmHg 48%
    05:00 +25°C° 0 mm 4 mps 715 mmHg 49%
    06:00 +25°C° 0 mm 3 mps 715 mmHg 49%
    07:00 +27°C° 0 mm 5 mps 715 mmHg 42%
    08:00 +30°C° 0 mm 6 mps 716 mmHg 35%
    09:00 +33°C° 0 mm 7 mps 716 mmHg 28%
    10:00 +35°C° 0 mm 7 mps 716 mmHg 24%
    11:00 +36°C° 0 mm 6 mps 715 mmHg 21%
    12:00 +39°C° 0 mm 5 mps 715 mmHg 17%
    13:00 +40°C° 0 mm 6 mps 714 mmHg 16%
    14:00 +40°C° 0 mm 6 mps 714 mmHg 15%
    15:00 +41°C° 0 mm 7 mps 713 mmHg 14%
    16:00 +40°C° 0 mm 7 mps 713 mmHg 16%
    17:00 +38°C° 0 mm 7 mps 713 mmHg 18%
    18:00 +36°C° 0 mm 6 mps 713 mmHg 21%
    19:00 +34°C° 0 mm 5 mps 713 mmHg 23%
    20:00 +32°C° 0 mm 5 mps 714 mmHg 26%
    21:00 +29°C° 0 mm 4 mps 714 mmHg 29%
    22:00 +29°C° 0 mm 3 mps 714 mmHg 31%
    23:00 +28°C° 0 mm 3 mps 714 mmHg 32%
    Show more